Hourly Data Report for September 28, 2017

All times are specified in Local Standard Time (LST). Add 1 hour to adjust for Daylight Saving Time where and when it is observed.

ARVIAT A
NUNAVUT

61°05'38.000" N
94°04'18.000" W
10.40 m
2300427
71174
YEK

Related Data

No related data is available for this station

Download Data

Hourly Data (September 2017)
Hourly Data Report for September 28, 2017
Temp Definition
°C
Dew Point Temp Definition
°C
Rel Hum Definition
%
Wind Dir Definition
10's deg

Wind Spd Definition
km/h
Visibility Definition
km
Stn Press Definition
kPa
Hmdx Definition


Wind Chill Definition


Weather Definition


TIME
00:00 Legend Double Dagger 5.8 5.7 99 1 34 4.8 101.34     Rain,Fog
01:00 Legend Double Dagger 5.4 5.0 97 1 35 9.7 101.44     Rain,Fog
02:00 Legend Double Dagger 5.3 4.4 94 1 24 16.1 101.56     Rain
03:00 Legend Double Dagger 4.7 3.8 94 36 24 16.1 101.66     LegendNANA
04:00 Legend Double Dagger 4.0 3.6 97 36 30 16.1 101.75     LegendNANA
05:00 Legend Double Dagger 4.6 3.9 95 36 30 16.1 101.86     LegendNANA
06:00 Legend Double Dagger 3.8 3.2 96 36 35 14.5 101.95     LegendNANA
07:00 Legend Double Dagger 2.5 1.3 92 36 43 16.1 102.05     LegendNANA
08:00 Legend Double Dagger 1.5 0.8 95 35 35 12.9 102.15     LegendNANA
09:00 Legend Double Dagger 1.6 -0.4 87 36 39 16.1 102.23     LegendNANA
10:00 Legend Double Dagger 1.4 -0.7 86 1 34 16.1 102.32     LegendNANA
11:00 Legend Double Dagger 1.2 -0.5 88 36 30 16.1 102.41     Rain
12:00 Legend Double Dagger 1.8 -1.3 80 1 26 16.1 102.45     LegendNANA
13:00 Legend Double Dagger 2.4 -1.5 75 36 28 16.1 102.50     LegendNANA
14:00 Legend Double Dagger 2.6 -1.6 74 2 24 16.1 102.53     LegendNANA
15:00 Legend Double Dagger 3.0 -2.1 69 1 18 16.1 102.55     LegendNANA
16:00 Legend Double Dagger 3.3 -1.9 69 1 17 16.1 102.56     LegendNANA
17:00 Legend Double Dagger 3.4 -2.5 66 1 21 16.1 102.58     LegendNANA
18:00 Legend Double Dagger 3.2 -2.7 65 34 15 16.1 102.59     LegendNANA
19:00 Legend Double Dagger 2.9 -2.2 69 33 8 16.1 102.59     LegendNANA
20:00 Legend Double Dagger 2.5 -0.6 80 36 11 16.1 102.58     LegendNANA
21:00 Legend Double Dagger 2.2 -0.1 85 32 5 16.1 102.54     LegendNANA
22:00 Legend Double Dagger 2.1 -1.0 80 26 11 16.1 102.55     LegendNANA
23:00 Legend Double Dagger 1.7 -1.6 79 26 8 16.1 102.54     LegendNANA

Notes on Data Quality.

Legend

  • E = Estimated
  • M = Missing
  • NA = Not Available
  • ‡ = Partner data that is not subject to review by the National Climate Archives
Date modified: